Showing default

YAOGAN 20A, 40109

Orbit data source: Space-Track

YAOGAN 20A, 40109 is a payload satellite owned by PLA GAD (CN) in LEO that was launched on Sat, 09 Aug 2014 UTC via a CHANG ZHENG 4C launch vehicle from the Jiuquan Satellite Launch Center, China (JSC). Payload-class satellites include a variety of spacecraft equipped with specific instruments for various scientific and technological missions. These include communications satellites like Starlink; space stations such as the ISS; scientific satellites like the Hubble; Earth observation satellites from companies like Planet Labs, Umbra, and HawkEye 360; GPS; miniature CubeSats for education and research; and military/defense satellites.

Loading next visibility...
Identifier
40109, 2014-047A
Orbit
LEO
Country
Flag of CNCN / PRC
Related business
Manufacturer
CAST
Mission
Operational Defense Sigint
Bus & Motor
JB-8, Unknown motor
Mass
~500 kg wet, ~500 kg dry
Launch date (UTC)
2014-08-09 (11 years ago)
Launch vehicle
CHANG ZHENG 4C
Launch site
Jiuquan Satellite Launch Center, China (JSC)
Object type
Payload
Rocket body
Debris
Shape & HBR
Box + 2 Pan, 0.5 m
Radar Cross Section
0.446 m², Large (>1 m²)

Expand to show TLE details & history
Last TLE update: 14 hours ago

TLE from 14 hours ago
0 YAOGAN 20A
1 40109U 14047A   25341.22928573 -.00000017  00000-0  81914-4 0  9999
2 40109  63.3782 153.9929 0373568  13.6594 347.4213 13.45416680556618
Epoch: 2025-12-07T05:30Z
TLE epoch observation values (Epoch: 2025-12-07T05:30:10.287Z)
Latitude
0.00003°
Longitude
-4.79561°
Altitude
819.173 km
Speed
7.578 km/s
True Right ascension
10h 15m 58s
True Declination
0° 00' 00"
Sunlit
Object was in daylight at epoch
Visualization orbit readout
Latitude
Unknown
Longitude
Unknown
Altitude
Unknown
Speed
Unknown
Apparent Right ascension
Unknown
Apparent Declination
Unknown
Sunlit
N/A
Visualization observer readout
Local Sidereal Time
18:05:29
Azimuth
Unknown
Elevation
Unknown
Doppler factor
Unknown
Orbital elements
Apogee altitude
1,366.91 km
Perigee altitude
809.088 km
Semi-major axis
7,466.136 km
Eccentricity
0.03736
Inclination
63.3782°
RAAN
153.9929°
Arg. of periapsis
13.6594°
True anomaly
346.44465°
Mean anomaly
347.4213°
Eccentric anomaly
346.93754°
Mean motion
3.36434 °/min
Orbital period
107 mins
BSTAR
0.000081914
Loading maneuver chart data...
Computing Atmospheric mass density...
Loading historical data...
Loading historical data...
Loading historical data...
Loading historical data...
Loading historical data...
Loading historical data...
Loading historical data...

Documentation

Showing up to 5 results
|